Regional Weather Roundup
Issued by NWS

Home | Current Version | Previous Version | Graphics & Text | Print | Product List | Glossary On
Versions: 1 2 3 4 5 6 7 8 9 10 11 12 13 14 15 16 17 18 19 20 21 22 23 24 25 26 27 28 29 30 31 32 33 34 35 36 37 38 39 40 41 42 43 44 45 46 47 48 49 50
000
ASUS43 KOAX 181002
RWRNE

WEATHER ROUNDUP FOR NEBRASKA
NATIONAL WEATHER SERVICE OMAHA NE
500 AM CDT FRI AUG 18 2017

NOTES: SATELLITE DATA IS BEING USED TO AUGMENT CLOUD COVER ABOVE
       12000 FEET.
       "FAIR" INDICATES FEW OR NO CLOUDS BELOW 12,000 FEET WITH NO
       SIGNIFICANT WEATHER AND/OR OBSTRUCTIONS TO VISIBILITY.


NEZ001>004-019>022-054>056-181100-
NEBRASKA PANHANDLE

CITY           SKY/WX    TMP DP  RH WIND       PRES   REMARKS
SCOTTSBLUFF    CLEAR     54  49  83 NW8       30.10S
ALLIANCE       CLOUDY    50  48  93 MISG      30.08S
CHADRON        CLEAR     51  47  86 SW5       30.05S
GORDON         FAIR      52  48  86 W5        30.04F
KIMBALL        CLOUDY    53  49  88 NW8       30.15S
SIDNEY         CLOUDY    54  49  83 NW9       30.11S
$$

NEZ057>060-069>072-079>082-181100-
SOUTHWEST NEBRASKA

CITY           SKY/WX    TMP DP  RH WIND       PRES   REMARKS
NORTH PLATTE   CLEAR     58  56  93 CALM      29.99F
IMPERIAL       CLEAR     57  54  89 N3        30.02S
LEXINGTON      CLEAR     63  57  80 CALM      29.99S
MCCOOK         CLEAR     61  57  87 CALM      30.01R
OGALLALA       CLEAR     58  56  92 NW3       30.03R
$$

NEZ005>010-023>029-035>040-094-181100-
NORTH CENTRAL NEBRASKA

CITY           SKY/WX    TMP DP  RH WIND       PRES   REMARKS
VALENTINE      CLEAR     59  52  77 SW6       29.96F
AINSWORTH      CLEAR     60  58  92 SW10      29.97S
BROKEN BOW     CLEAR     61  57  87 W7        29.96F
O`NEILL        CLEAR     58  58 100 CALM      29.94R
ORD            CLEAR     58  55  90 NW6       29.93R
THEDFORD       CLEAR     56  55  95 CALM      30.00F
$$

NEZ041-046>049-061>064-073>077-083>087-181100-
SOUTH CENTRAL NEBRASKA

CITY           SKY/WX    TMP DP  RH WIND       PRES   REMARKS
GRAND ISLAND   CLOUDY    64  60  87 SE9       29.90F
AURORA         MOCLDY    64  61  90 SE13      29.90F
HASTINGS       CLOUDY    66  57  72 SE10      29.94F
HEBRON         CLOUDY    69  61  75 CALM      29.97S
HOLDREGE       CLOUDY    63  56  79 SE7       29.98S
KEARNEY        PTCLDY    63  58  83 S7        29.95F
YORK           MOCLDY    63  63 100 CALM      29.95F
$$

NEZ011>018-030>034-042>045-181100-
NORTHEAST NEBRASKA

CITY           SKY/WX    TMP DP  RH WIND       PRES   REMARKS
NORFOLK        CLOUDY    62  58  86 W6        29.88F
ALBION         CLEAR     62  59  90 CALM      29.89F
BLAIR          LGT RAIN  67  63  86 W9        29.94R
COLUMBUS       CLOUDY    64  62  93 SE6       29.89F
FREMONT        LGT RAIN  66  62  86 W6        29.92F
TEKAMAH        CLOUDY    66  62  87 S10       29.89F
WAYNE          CLOUDY    64  61  91 CALM      29.88R
$$

NEZ050>053-065>068-078-088>093-181100-
SOUTHEAST NEBRASKA

CITY           SKY/WX    TMP DP  RH WIND       PRES   REMARKS
LINCOLN        CLOUDY    69  61  75 NW3       29.96R
OMAHA EPPLEY   CLOUDY    70  62  76 SW3       29.93F
BEATRICE       CLOUDY    66  60  81 NW3       29.96R
FALLS CITY     MOCLDY    61  59  93 E3        29.91S
NEBRASKA CITY  CLOUDY    67  63  87 S3        29.93F
PLATTSMOUTH    CLOUDY    66  61  82 NW3       29.93S
$$

NEZ044-045-051>053-067-181100-
OMAHA AREA

CITY           SKY/WX    TMP DP  RH WIND       PRES   REMARKS
OMAHA EPPLEY   CLOUDY    70  62  76 SW3       29.93F
BLAIR          LGT RAIN  67  63  86 W9        29.94R
FREMONT        LGT RAIN  66  62  86 W6        29.92F
MILLARD        LGT RAIN  70  64  81 W6        29.94R
OFFUTT AFB     CLOUDY    66  61  84 W5        29.93F
PLATTSMOUTH    CLOUDY    66  61  82 NW3       29.93S
WAHOO          PTSUNNY   66  64  93 CALM      29.94F
$$



USA.gov is the U.S. government's official web portal to all federal, state and local government web resources and services.